Regional Weather Roundup
Issued by NWS

Home | Current Version | Previous Version | Text Only | Print | Product List | Glossary On
Versions: 1 2 3 4 5 6 7 8 9 10 11 12 13 14 15 16 17 18 19 20 21 22 23 24 25 26 27 28 29 30 31 32 33 34 35 36 37 38 39 40 41 42 43 44 45 46 47 48 49 50
586
ASUS43 KLSX 260607
RWRMO

WEATHER SUMMARY FOR MISSOURI
NATIONAL WEATHER SERVICE SPRINGFIELD MO
100 AM CDT WED APR 26 2017

NOTE: "FAIR" INDICATES FEW OR NO CLOUDS BELOW 12,000 FEET WITH NO
       SIGNIFICANT WEATHER AND/OR OBSTRUCTIONS TO VISIBILITY.
       CURRENT SKY AND/OR WEATHER CONDITIONS ARE NOT AVAILABLE FOR
       CHILLICOTHE AND FARMINGTON.

MOZ001>031-035>038-043-044-053-054-260700-
...NORTHERN AND WESTERN MISSOURI...

CITY           SKY/WX    TMP DP  RH WIND       PRES   REMARKS
KANSAS CTY INT CLOUDY    49  47  93 N12       29.52R
6HR MIN TEMP:  49; 6HR MAX TEMP:  68; 6HR PCP:  0.12;

KANSAS C DTWN  LGT RAIN  52  49  89 N7        29.50S
6HR MIN TEMP:  52; 6HR MAX TEMP:  73; 6HR PCP:  0.24;

LEE`S SUMMIT   RAIN      53  52  96 NW8       29.51R FOG
6HR MIN TEMP:  53; 6HR MAX TEMP:  72; 6HR PCP:  0.35;

ST JOSEPH      CLOUDY    48  45  89 N13       29.53R
6HR MIN TEMP:  48; 6HR MAX TEMP:  64; 6HR PCP: TRACE;

CHILLICOTHE      N/A     56  53  90 NW9       29.48F
6HR MIN TEMP:  56; 6HR MAX TEMP:  72; 6HR PCP:  0.09;

KIRKSVILLE     CLOUDY    62  56  80 CALM      29.45F
6HR MIN TEMP:  61; 6HR MAX TEMP:  75;


$$
MOZ066>068-077>081-088>096-101>105-260700-
...SOUTHWEST MISSOURI...

CITY           SKY/WX    TMP DP  RH WIND       PRES   REMARKS
SPRINGFIELD    CLOUDY    69  62  78 SE9       29.47F
6HR MIN TEMP:  64; 6HR MAX TEMP:  75;

JOPLIN         TSTM      60  59  96 W8        29.46R
6HR MIN TEMP:  59; 6HR MAX TEMP:  75; 6HR PCP:  0.55;

BRANSON        CLOUDY    66  61  82 CALM      29.51S

$$
MOZ032>034-039>042-045>050-055>058-069>072-260700-
...CENTRAL MISSOURI...

CITY           SKY/WX    TMP DP  RH WIND       PRES   REMARKS
COLUMBIA       CLOUDY    66  57  72 S5        29.47F
6HR MIN TEMP:  65; 6HR MAX TEMP:  78;

JEFFERSON CITY CLOUDY    71  54  54 SE5       29.47F
6HR MIN TEMP:  71; 6HR MAX TEMP:  81;

ROLLA          MOCLDY    67  54  63 S10       29.49S
6HR MIN TEMP:  67; 6HR MAX TEMP:  74;

SEDALIA        LGT RAIN  64  62  93 CALM      29.49R
6HR MIN TEMP:  64; 6HR MAX TEMP:  78; 6HR PCP:  0.22;

WHITEMAN AFB   TSTM      63  63 100 NW2       29.44F
OSAGE BEACH    CLOUDY    68  57  68 S5        29.48F

$$
MOZ051-052-059>065-260700-
...EAST CENTRAL MISSOURI...

CITY           SKY/WX    TMP DP  RH WIND       PRES   REMARKS
ST LOUIS INTL  MOCLDY    71  51  49 S10       29.50F
6HR MIN TEMP:  71; 6HR MAX TEMP:  79;

SPIRIT OF STL  PTCLDY    70  53  54 S6        29.49F
6HR MIN TEMP:  70; 6HR MAX TEMP:  78;

ST CHARLES     MOCLDY    66  51  58 SE8       29.49F
6HR MIN TEMP:  66; 6HR MAX TEMP:  77;


$$
MOZ072>076-082>087-097>100-106>115-260700-
...SOUTH CENTRAL AND SOUTHEAST MISSOURI...

CITY           SKY/WX    TMP DP  RH WIND       PRES   REMARKS
CAPE GIRARDEAU CLOUDY    65  53  65 S7        29.58S
6HR MIN TEMP:  65; 6HR MAX TEMP:  75;

FARMINGTON     MOCLDY    67  53  61 S8        29.56F
6HR MIN TEMP:  67; 6HR MAX TEMP:  73;

POPLAR BLUFF   CLOUDY    68  56  65 S8        29.57S
6HR MIN TEMP:  67; 6HR MAX TEMP:  76;

WEST PLAINS    CLOUDY    67  54  63 S8        29.54F
6HR MIN TEMP:  67; 6HR MAX TEMP:  73;


$$




USA.gov is the U.S. government's official web portal to all federal, state and local government web resources and services.